Location: ????????
(55.4000°N, 39.1167°E)
Time: 07:47:33
(UTC+00:00)

ATLAS 3B R/B - Pass Details

Date: 19 May 2025
Orbit: 935 x 1258 km, 63.8° (Epoch: 23 June)

Event Time Altitude Azimuth Distance (km) Brightness Sun altitude
Exits shadow 21:30:09 10° 221° (SW) 3,064 4.6 -14.6°
Maximum altitude 21:37:34 81° 136° (SE) 1,251 3.0 -14.5°
Drops below altitude 10° 21:45:29 10° 51° (NE) 3,248 5.9 -14.4°
Sets 21:48:19 0° 50° (NE) 4,221 6.6 -14.4°
